Weather History for Evanston, WY

Change the Weather History Date:

Saturday, March 23, 2013

  Actual Average Record
Temperature  
Mean Temperature 16 °F 33 °F  
Max Temperature 24 °F 42 °F 63 °F (2012)
Min Temperature 10 °F 24 °F 10 °F (2013)
Degree Days  
Heating Degree Days 50 32  
Month to date heating degree days 719 814  
Since 1 July heating degree days 6314 6822  
Cooling Degree Days 0 0  
Month to date cooling degree days 0 0  
Year to date cooling degree days 0 0  
Moisture  
Dew Point 11 °F    
Average Humidity 80    
Maximum Humidity 92    
Minimum Humidity 67    
Precipitation  
Precipitation 0.05 in 0.04 in 0.08 in (2005)
Month to date precipitation 0.32 0.54  
Year to date precipitation 0.79 1.69  
Sea Level Pressure  
Sea Level Pressure 30.03 in    
Wind  
Wind Speed 9 mph (NNW)    
Max Wind Speed 17 mph    
Max Gust Speed 21 mph    
Visibility 4 miles    
Events Fog , Snow    
T = Trace of Precipitation, MM = Missing Value Source: NWS Daily Summary

Daily Weather History Graph

Daily Weather History Graph

Search for Another Location

Airport:

Trip Planner

Search our weather history database for the weather conditions in past years. The results will help you decide how hot, cold, wet, or windy it might be!

Date:

Astronomy

Mar. 23, 2013 Rise Set
Actual Time 7:21 AM MDT 7:39 PM MDT
Civil Twilight 6:54 AM MDT 8:07 PM MDT
Nautical Twilight 6:21 AM MDT 8:39 PM MDT
Astronomical Twilight 5:48 AM MDT 9:13 PM MDT
Moon 4:08 PM MDT (3/23) 5:02 AM MDT (3/23)
Length of Visible Light 13h 13m
Length of Day
12h 18m
Waxing Gibbous, 85% of the Moon is Illuminated
Mar 23
Waxing Gibbous
Mar 27
Full
Apr 2
Last Quarter
Apr 10
New
Apr 18
First Quarter

Hourly Weather History & Observations

Time (MDT) Temp. Windchill Dew Point Humidity Pressure Visibility Wind Dir Wind Speed Gust Speed Precip Events Conditions
12:08 AM 12.2 °F 1.7 °F 8.6 °F 85% 29.87 in 10.0 mi WSW 6.9 mph - N/A   Overcast
12:25 AM 12.2 °F 1.7 °F 8.6 °F 85% 29.87 in 10.0 mi West 6.9 mph - N/A   Overcast
12:53 AM 12.0 °F 1.5 °F 8.1 °F 84% 30.01 in 10.0 mi WSW 6.9 mph - N/A   Overcast
1:03 AM 12.2 °F 2.9 °F 8.6 °F 85% 29.87 in 10.0 mi West 5.8 mph - N/A   Overcast
1:25 AM 10.4 °F 0.8 °F 6.8 °F 85% 29.88 in 10.0 mi WSW 5.8 mph - N/A   Overcast
1:53 AM 12.0 °F 4.1 °F 8.1 °F 84% 30.02 in 10.0 mi WSW 4.6 mph - N/A   Overcast
2:21 AM 10.4 °F 0.8 °F 6.8 °F 85% 29.88 in 10.0 mi WSW 5.8 mph - 0.00 in   Overcast
2:39 AM 10.4 °F -0.4 °F 6.8 °F 85% 29.88 in 10.0 mi WSW 6.9 mph - 0.00 in   Overcast
2:53 AM 12.0 °F 1.5 °F 7.0 °F 80% 30.03 in 10.0 mi West 6.9 mph - 0.00 in   Overcast
3:33 AM 14.0 °F 3.9 °F 8.6 °F 79% 29.88 in 2.5 mi WNW 6.9 mph - 0.00 in Snow Light Snow
3:53 AM 12.9 °F 3.8 °F 9.0 °F 84% 30.04 in 2.0 mi NW 5.8 mph - 0.00 in Snow Light Snow
4:29 AM 14.0 °F 5.1 °F 8.6 °F 79% 29.89 in 4.0 mi NW 5.8 mph - 0.00 in Snow Light Snow
4:37 AM 14.0 °F 5.1 °F 10.4 °F 86% 29.89 in 1.8 mi NNW 5.8 mph - 0.00 in Snow Light Snow
4:44 AM 14.0 °F 1.2 °F 10.4 °F 86% 29.89 in 1.2 mi NNW 10.4 mph - 0.00 in Snow Light Snow
4:53 AM 14.0 °F -0.2 °F 10.0 °F 84% 30.01 in 1.8 mi NNW 12.7 mph - 0.00 in Snow Light Snow
5:03 AM 14.0 °F -0.2 °F 10.4 °F 86% 29.89 in 1.2 mi NNW 12.7 mph - 0.00 in Snow Light Snow
5:23 AM 14.0 °F -0.8 °F 10.4 °F 86% 29.89 in 2.0 mi NNW 13.8 mph - 0.00 in Snow Light Snow
5:36 AM 14.0 °F -1.4 °F 10.4 °F 86% 29.90 in 2.5 mi NNW 15.0 mph - 0.00 in Snow Light Snow
5:46 AM 14.0 °F -0.8 °F 10.4 °F 86% 29.90 in 1.5 mi NNW 13.8 mph - 0.00 in Snow Light Snow
5:53 AM 14.0 °F -0.8 °F 10.9 °F 88% 30.05 in 1.5 mi NNW 13.8 mph - 0.00 in Snow Light Snow
6:08 AM 14.0 °F -1.4 °F 10.4 °F 86% 29.91 in 1.0 mi NNW 15.0 mph - 0.00 in Snow Light Snow
6:15 AM 14.0 °F -0.8 °F 10.4 °F 86% 29.91 in 1.0 mi NNW 13.8 mph - 0.00 in Snow Light Snow
6:50 AM 14.0 °F -0.2 °F 10.4 °F 86% 29.93 in 1.5 mi NNW 12.7 mph - 0.00 in Snow Light Snow
6:53 AM 14.0 °F -0.8 °F 10.9 °F 88% 30.08 in 1.5 mi North 13.8 mph - 0.00 in Snow Light Snow
7:02 AM 14.0 °F -2.0 °F 10.4 °F 86% 29.93 in 1.8 mi NNW 16.1 mph 20.7 mph 0.00 in Snow Light Snow
7:09 AM 14.0 °F -1.4 °F 10.4 °F 86% 29.94 in 1.5 mi North 15.0 mph - 0.00 in Snow Light Snow
7:45 AM 12.2 °F -3.1 °F 10.4 °F 92% 29.96 in 2.0 mi NNW 13.8 mph - 0.00 in Snow Light Snow
7:53 AM 12.9 °F -2.2 °F 10.0 °F 88% 30.12 in 2.0 mi North 13.8 mph - 0.00 in Snow Light Snow
7:59 AM 14.0 °F -0.2 °F 10.4 °F 86% 29.96 in 1.5 mi North 12.7 mph - 0.00 in Snow Light Snow
8:13 AM 14.0 °F 0.5 °F 10.4 °F 86% 29.97 in 0.8 mi North 11.5 mph - 0.00 in Snow Light Snow
8:27 AM 15.8 °F 2.1 °F 10.4 °F 79% 29.98 in 0.2 mi North 12.7 mph - 0.00 in Fog , Snow Snow
8:37 AM 15.8 °F -0.2 °F 10.4 °F 79% 29.98 in 0.2 mi NNE 17.3 mph - 0.00 in Fog , Snow Snow
8:53 AM 15.1 °F 0.5 °F 10.9 °F 84% 30.15 in 0.8 mi North 13.8 mph - 0.00 in Snow Light Snow
9:01 AM 15.8 °F 2.1 °F 10.4 °F 79% 29.99 in 1.5 mi North 12.7 mph - 0.00 in Snow Light Snow
9:17 AM 15.8 °F 2.7 °F 10.4 °F 79% 30.00 in 1.5 mi North 11.5 mph - 0.00 in Snow Light Snow
9:34 AM 15.8 °F 5.1 °F 10.4 °F 79% 30.00 in 1.0 mi North 8.1 mph - 0.00 in Snow Light Snow
9:48 AM 15.8 °F 4.2 °F 10.4 °F 79% 30.01 in 0.8 mi North 9.2 mph - 0.00 in Snow Light Snow
9:53 AM 16.0 °F 4.4 °F 10.9 °F 81% 30.18 in 0.8 mi NNE 9.2 mph - 0.00 in Snow Light Snow
10:04 AM 17.6 °F 6.4 °F 12.2 °F 79% 30.02 in 1.0 mi NNE 9.2 mph - 0.00 in Snow Light Snow
10:11 AM 17.6 °F 7.3 °F 10.4 °F 73% 30.02 in 0.8 mi NNE 8.1 mph - 0.00 in Snow Light Snow
10:22 AM 15.8 °F 5.1 °F 10.4 °F 79% 30.02 in 1.2 mi NNE 8.1 mph - 0.00 in Snow Light Snow
10:25 AM 17.6 °F 8.2 °F 10.4 °F 73% 30.03 in 2.0 mi NNE 6.9 mph - 0.00 in Snow Light Snow
10:39 AM 17.6 °F 10.7 °F 12.2 °F 79% 30.03 in 2.5 mi NNE 4.6 mph - 0.00 in Snow Light Snow
10:45 AM 17.6 °F 10.7 °F 12.2 °F 79% 30.03 in 1.8 mi NNE 4.6 mph - 0.00 in Snow Light Snow
10:53 AM 17.1 °F 7.6 °F 12.0 °F 81% 30.21 in 0.8 mi NNW 6.9 mph - 0.00 in Snow Light Snow
11:20 AM 17.6 °F 10.7 °F 10.4 °F 73% 30.04 in 2.0 mi NW 4.6 mph - 0.00 in Snow Light Snow
11:28 AM 17.6 °F 12.3 °F 10.4 °F 73% 30.04 in 7.0 mi Variable 3.5 mph - 0.00 in Snow Light Snow
11:42 AM 17.6 °F - 8.6 °F 68% 30.04 in 6.0 mi Calm Calm - 0.00 in Snow Light Snow
11:53 AM 19.0 °F - 10.0 °F 68% 30.21 in 4.0 mi Calm Calm - 0.00 in Snow Light Snow
12:29 PM 17.6 °F 7.3 °F 12.2 °F 79% 30.04 in 1.8 mi WSW 8.1 mph - 0.00 in Snow Light Snow
12:33 PM 17.6 °F 9.3 °F 12.2 °F 79% 30.04 in 0.8 mi WSW 5.8 mph - 0.00 in Snow Light Snow
12:41 PM 17.6 °F 10.7 °F 14.0 °F 86% 30.04 in 1.0 mi SW 4.6 mph - 0.00 in Snow Light Snow
12:46 PM 19.4 °F 12.8 °F 12.2 °F 74% 30.04 in 3.0 mi SSW 4.6 mph - 0.03 in Snow Light Snow
12:53 PM 19.9 °F 13.4 °F 14.0 °F 78% 30.20 in 9.0 mi Variable 4.6 mph - 0.05 in   Overcast
1:17 PM 19.4 °F 9.5 °F 12.2 °F 74% 30.04 in 1.8 mi West 8.1 mph - 0.01 in Snow Light Snow
1:26 PM 19.4 °F 10.4 °F 12.2 °F 74% 30.04 in 1.5 mi WNW 6.9 mph - 0.01 in Snow Light Snow
1:33 PM 17.6 °F 9.3 °F 12.2 °F 79% 30.04 in 0.2 mi WNW 5.8 mph - 0.01 in Snow Heavy Snow
1:43 PM 17.6 °F 12.3 °F 12.2 °F 79% 30.04 in 0.5 mi West 3.5 mph - 0.01 in Snow Snow
1:46 PM 19.4 °F 14.3 °F 14.0 °F 80% 30.04 in 1.8 mi WNW 3.5 mph - 0.01 in Snow Light Snow
1:53 PM 19.9 °F 14.9 °F 12.0 °F 71% 30.20 in 9.0 mi West 3.5 mph - 0.02 in Snow Light Snow
2:15 PM 19.4 °F 8.6 °F 10.4 °F 68% 30.04 in 1.8 mi WNW 9.2 mph - 0.00 in Snow Light Snow
2:24 PM 19.4 °F 5.5 °F 12.2 °F 74% 30.03 in 2.0 mi West 15.0 mph 19.6 mph 0.00 in Snow Light Snow
2:32 PM 19.4 °F 5.0 °F 14.0 °F 80% 30.03 in 3.0 mi WSW 16.1 mph - 0.00 in Snow Light Snow
2:53 PM 21.0 °F 9.9 °F 12.0 °F 68% 30.18 in 10.0 mi West 10.4 mph - 0.00 in   Overcast
3:53 PM 21.9 °F - 10.9 °F 63% 30.17 in 10.0 mi Calm Calm - N/A   Mostly Cloudy
4:53 PM 19.9 °F 5.2 °F 12.9 °F 74% 30.17 in 9.0 mi North 17.3 mph - 0.00 in   Mostly Cloudy
5:53 PM 19.9 °F 14.9 °F 10.9 °F 68% 30.19 in 9.0 mi North 3.5 mph - 0.00 in Snow Light Snow
6:03 PM 19.4 °F 14.3 °F 10.4 °F 68% 30.03 in 4.0 mi NE 3.5 mph - 0.00 in Snow Light Snow
6:11 PM 19.4 °F 14.3 °F 8.6 °F 63% 30.03 in 9.0 mi NE 3.5 mph - 0.00 in Snow Light Snow
6:53 PM 18.0 °F 4.8 °F 12.9 °F 81% 30.20 in 5.0 mi North 12.7 mph - 0.00 in Snow Light Snow
7:09 PM 17.6 °F 5.7 °F 14.0 °F 86% 30.05 in 1.8 mi NNE 10.4 mph - 0.00 in Snow Light Snow
7:16 PM 17.6 °F 9.3 °F 14.0 °F 86% 30.05 in 0.8 mi NNE 5.8 mph - 0.00 in Snow Light Snow
7:26 PM 17.6 °F - 14.0 °F 86% 30.05 in 0.2 mi Calm Calm - 0.00 in Fog , Snow Heavy Snow
7:38 PM 17.6 °F - 12.2 °F 79% 30.05 in 1.0 mi Calm Calm - 0.00 in Snow Light Snow
7:53 PM 17.1 °F - 12.9 °F 84% 30.24 in 0.8 mi Calm Calm - 0.00 in Snow Light Snow
8:20 PM 17.6 °F 7.3 °F 12.2 °F 79% 30.07 in 1.0 mi NW 8.1 mph - 0.00 in Snow Light Snow
8:38 PM 15.8 °F 5.1 °F 12.2 °F 86% 30.07 in 2.0 mi North 8.1 mph - 0.00 in Snow Light Snow
8:45 PM 15.8 °F 8.6 °F 10.4 °F 79% 30.07 in 3.0 mi North 4.6 mph - 0.00 in Snow Light Snow
8:53 PM 15.1 °F 7.7 °F 10.9 °F 84% 30.25 in 7.0 mi North 4.6 mph - 0.00 in Snow Light Snow
9:53 PM 15.1 °F 7.7 °F 10.9 °F 84% 30.25 in 10.0 mi North 4.6 mph - 0.00 in   Overcast
10:22 PM 15.8 °F - 12.2 °F 86% 30.09 in 5.0 mi Calm Calm - 0.00 in Snow Light Snow
10:53 PM 15.1 °F - 10.9 °F 84% 30.26 in 4.0 mi Calm Calm - 0.00 in Snow Light Snow
11:09 PM 14.0 °F - 10.4 °F 86% 30.09 in 9.0 mi Calm Calm - 0.00 in   Scattered Clouds
11:53 PM 14.0 °F 8.2 °F 10.9 °F 88% 30.24 in 10.0 mi South 3.5 mph - 0.00 in   Overcast